Weather in Uzen

Russia / Tomsk District     57°17′56″N   86°12′20″E
temp.,
°C
wind,
m/s
gust,
m/s
humid.,
%
clouds,
%
prec.,
mm/h
press.,
hPa
HPBL,
m
29 november, mon
mon2901:00−6wsw5129199 0.2 1030462
04:00−6wsw41092100 0.1 1031425
07:00−7sw3894100 0.2 1032308
10:00−8ssw4994100 0.1 1032344
13:00−7ssw41092100 0.1 1031442
16:00−6ssw41192100 0.3 1029480
19:00−8ssw51292100 0.3 1028436
22:00−8ssw41289100 0.0 1027387
30 november, tue
tue3001:00−7ssw5138690 0.0 1026447
04:00−8ssw5148180 0.0 1025441
07:00−9ssw5138086 0.0 1023402
10:00−8sw51480100 0.0 1023452
13:00−6sw51478100 0.0 1022496
16:00−7sw41180100 0.0 1022377
19:00−7sw4118293 0.0 1022358
22:00−8sw41283100 0.0 1022372
1 december, wed
wed101:00−8wsw4118797 0.0 1023341
04:00−9sw4992100 0.1 1024333
07:00−9sw3795100 0.2 1025225
10:00−9ssw3595100 0.2 1027183
13:00−8ssw3593100 0.3 1027231
16:00−9s3789100 0.1 1026244
19:00−10s3890100 0.1 1025227
22:00−9ssw41286100 0.0 1024344
2 december, thu
thu201:00−7ssw31184100 0.0 1023400
04:00−7ssw41186100 0.0 1022364
07:00−7ssw41286100 0.0 1021360
10:00−7ssw41286100 0.0 1021345
13:00−6ssw41284100 0.0 1021384
16:00−6ssw4118596 0.0 1020294
19:00−6ssw41186100 0.0 1019291
22:00−7s41286100 0.0 1017300
3 december, fri
fri301:00−7s41285100 0.0 1015272
04:00−7s51484100 0.0 1014316
07:00−5s51679100 0.0 1011405
10:00−2ssw61774100 0.0 1009564
13:00+1ssw71771100 0.0 1006772
16:00+1ssw71681100 0.0 1004890
19:000sw61497100 1.4 1005792
22:000wsw71385100 0.4 10071189